Regional Weather Roundup
Issued by NWS State College, PA

Home | Current Version | Previous Version | Graphics & Text | Print | Product List | Glossary Off
Versions: 1 2 3 4 5 6 7 8 9 10 11 12 13 14 15 16 17 18 19 20 21 22 23 24 25 26 27 28 29 30 31 32 33 34 35 36 37 38 39 40 41 42 43 44 45 46 47 48 49 50

000
ASUS41 KCTP 231203
RWRCTP

REGIONAL WEATHER ROUNDUP
NATIONAL WEATHER SERVICE STATE COLLEGE PA
800 AM EDT SUN JUL 23 2017

Note: "fair" indicates few or no clouds below 12,000 feet with no
significant weather and/or obstructions to visibility.

* = STATION THAT DOES NOT REPORT PRECIPITATION /E.G. RAIN...SNOW...ETC/
    THUNDER OR FOG.

PAZ002>004-007>009-013>016-020>023-029>032-231300-
WESTERN PENNSYLVANIA

CITY           SKY/WX    TMP DP  RH WIND       PRES   REMARKS
ERIE           CLOUDY    74  71  91 CALM      29.76R
MEADVILLE      CLOUDY    73  72  96 SW7       29.81R
FRANKLIN*      CLOUDY    72  66  83 SW5       29.82R
NEW CASTLE     CLOUDY    73  72  96 SW3       29.82R
BEAVER COUNTY  NOT AVBL
BUTLER*        CLOUDY    73  70  88 SW6       29.83R
PITTSBURGH INT CLOUDY    74  72  93 SW6       29.82S FOG
PITTSBURGH     CLOUDY    73  69  87 SW8       29.82S FOG
INDIANA*       CLOUDY    72  72 100 SW8       29.86R FOG
LATROBE        CLOUDY    72  72 100 SW7       29.84S FOG
WASHINGTON CO* CLOUDY    72  70  94 CALM      29.84S
$$

PAZ004>006-010>012-017>019-024>028-033>037-041-042-045-046-049>053-231300-
CENTRAL PENNSYLVANIA

CITY           SKY/WX    TMP DP  RH WIND       PRES   REMARKS
BRADFORD       CLOUDY    67  67 100 S3        29.83R FOG
DUBOIS         CLOUDY    71  69  93 SW8       29.82S FOG
CLEARFIELD     CLOUDY    70  69  97 CALM      29.83R
JOHNSTOWN      FOG       69  69 100 W7        29.88R VSB 1/2
ALTOONA        PTSUNNY   73  72  96 VRB3      29.84R
STATE COLLEGE  CLOUDY    68  68 100 CALM      29.82R FOG
WILLIAMSPORT   CLOUDY    73  71  93 VRB3      29.78R
SELINSGROVE    CLOUDY    72  71  97 CALM      29.80R FOG
FT INDIANTOWN  MOSUNNY   74  70  88 CALM      29.80R
CAPITAL CITY   CLOUDY    76  70  82 W6        29.79R
HARRISBURG     CLOUDY    76  72  87 NW7       29.78R
YORK           CLOUDY    74  72  93 W3        29.79R
$$

PAZ038>040-043-044-047-048-054-055-060>062-067>071-231300-
EASTERN PENNSYLVANIA

CITY           SKY/WX    TMP DP  RH WIND       PRES   REMARKS
SCRANTON       CLOUDY    72  68  87 CALM      29.82R
MOUNT POCONO   CLOUDY    67  64  90 NE5       29.85R
ALLENTOWN      CLOUDY    73  69  87 E3        29.79R
QUAKERTOWN*    CLOUDY    72  72 100 CALM      29.80R
READING        PTSUNNY   72  72 100 CALM      29.78R FOG
LANCASTER      CLOUDY    76  73  91 N5        29.79R
COATESVILLE    CLOUDY    73  72  94 W6        29.81R
POTTSTOWN      CLOUDY    71  71 100 N3        29.80R FOG
BLUE BELL      CLOUDY    70  70 100 CALM      29.79R
DOYLESTOWN     CLOUDY    72  70  93 CALM      29.78R
WILLOW GROVE   NOT AVBL
NORTH PHILA    CLOUDY    75  71  87 NE5       29.78R
PHILADELPHIA   CLOUDY    78  71  79 CALM      29.76R
$$




USA.gov is the U.S. government's official web portal to all federal, state and local government web resources and services.